Hourly Weather Shrewsbury

Today, 25 September, Friday

Time Temperature Precipitation Wind Pressure Humidity
00:00 +5°C° 0 mm 2 mps 742 mmHg 93%
01:00 +5°C° 0 mm 3 mps 743 mmHg 92%
02:00 +5°C° 0 mm 4 mps 744 mmHg 92%
03:00 +5°C° 0 mm 5 mps 744 mmHg 92%
04:00 +5°C° 0 mm 5 mps 745 mmHg 90%
05:00 +5°C° 0 mm 5 mps 746 mmHg 88%
06:00 +5°C° 0 mm 5 mps 747 mmHg 87%
07:00 +5°C° 0 mm 6 mps 747 mmHg 82%
08:00 +8°C° 0 mm 7 mps 748 mmHg 77%
09:00 +9°C° 0 mm 8 mps 749 mmHg 72%
10:00 +10°C° 0 mm 9 mps 749 mmHg 68%
11:00 +11°C° 0 mm 9 mps 750 mmHg 63%
12:00 +12°C° 0 mm 10 mps 750 mmHg 59%
13:00 +12°C° 0 mm 9 mps 750 mmHg 60%
14:00 +12°C° 0 mm 9 mps 751 mmHg 62%
15:00 +11°C° 0 mm 9 mps 751 mmHg 63%
16:00 +10°C° 0 mm 8 mps 752 mmHg 68%
17:00 +9°C° 0 mm 7 mps 752 mmHg 72%
18:00 +8°C° 0 mm 6 mps 753 mmHg 77%
19:00 +8°C° 0.1 mm 5 mps 753 mmHg 80%
20:00 +7°C° 0.1 mm 5 mps 753 mmHg 83%
21:00 +7°C° 0.1 mm 5 mps 754 mmHg 86%
22:00 +6°C° 0 mm 4 mps 754 mmHg 86%
23:00 +6°C° 0 mm 4 mps 754 mmHg 86%

Tomorrow, 26 September, Saturday

Time Temperature Precipitation Wind Pressure Humidity
00:00 +5°C° 0 mm 4 mps 754 mmHg 87%
01:00 +5°C° 0 mm 4 mps 754 mmHg 87%
02:00 +5°C° 0 mm 4 mps 754 mmHg 87%
03:00 +4°C° 0 mm 3 mps 754 mmHg 88%
04:00 +4°C° 0 mm 3 mps 754 mmHg 87%
05:00 +3°C° 0 mm 3 mps 754 mmHg 87%
06:00 +3°C° 0 mm 3 mps 755 mmHg 87%
07:00 +5°C° 0 mm 4 mps 755 mmHg 81%
08:00 +6°C° 0 mm 5 mps 755 mmHg 75%
09:00 +8°C° 0 mm 6 mps 755 mmHg 69%
10:00 +9°C° 0 mm 6 mps 755 mmHg 66%
11:00 +10°C° 0 mm 6 mps 755 mmHg 63%
12:00 +10°C° 0 mm 6 mps 755 mmHg 60%
13:00 +10°C° 0 mm 6 mps 755 mmHg 62%
14:00 +10°C° 0 mm 6 mps 756 mmHg 64%
15:00 +10°C° 0 mm 7 mps 756 mmHg 66%
16:00 +9°C° 0 mm 6 mps 756 mmHg 68%
17:00 +8°C° 0 mm 5 mps 756 mmHg 70%
18:00 +8°C° 0 mm 5 mps 756 mmHg 72%
19:00 +7°C° 0 mm 4 mps 757 mmHg 74%
20:00 +6°C° 0 mm 4 mps 757 mmHg 77%
21:00 +6°C° 0 mm 4 mps 757 mmHg 79%
22:00 +5°C° 0 mm 4 mps 757 mmHg 81%
23:00 +5°C° 0 mm 4 mps 757 mmHg 83%

Day after tomorrow, 27 September, Sunday

Time Temperature Precipitation Wind Pressure Humidity
00:00 +5°C° 0 mm 4 mps 757 mmHg 85%
01:00 +4°C° 0 mm 3 mps 757 mmHg 85%
02:00 +4°C° 0 mm 3 mps 757 mmHg 86%
03:00 +4°C° 0 mm 3 mps 757 mmHg 87%
04:00 +3°C° 0 mm 3 mps 757 mmHg 88%
05:00 +3°C° 0 mm 3 mps 757 mmHg 89%
06:00 +4°C° 0 mm 2 mps 757 mmHg 91%
07:00 +4°C° 0 mm 3 mps 757 mmHg 85%
08:00 +6°C° 0 mm 4 mps 757 mmHg 79%
09:00 +7°C° 0 mm 4 mps 757 mmHg 73%
10:00 +10°C° 0 mm 4 mps 757 mmHg 69%
11:00 +10°C° 0 mm 5 mps 756 mmHg 66%
12:00 +12°C° 0 mm 5 mps 756 mmHg 62%
13:00 +12°C° 0 mm 5 mps 756 mmHg 62%
14:00 +12°C° 0 mm 4 mps 756 mmHg 61%
15:00 +12°C° 0 mm 4 mps 756 mmHg 61%
16:00 +10°C° 0 mm 3 mps 756 mmHg 66%
17:00 +9°C° 0 mm 3 mps 756 mmHg 72%
18:00 +7°C° 0 mm 2 mps 756 mmHg 77%
19:00 +6°C° 0 mm 2 mps 756 mmHg 77%
20:00 +7°C° 0 mm 1 mps 756 mmHg 77%
21:00 +6°C° 0 mm 1 mps 756 mmHg 77%
22:00 +6°C° 0 mm 1 mps 756 mmHg 79%
23:00 +6°C° 0 mm 1 mps 755 mmHg 80%

28 September, Monday

Time Temperature Precipitation Wind Pressure Humidity
00:00 +6°C° 0 mm 1 mps 755 mmHg 82%
01:00 +6°C° 0 mm 1 mps 755 mmHg 82%
02:00 +6°C° 0 mm 1 mps 755 mmHg 83%
03:00 +6°C° 0 mm 1 mps 754 mmHg 84%
04:00 +6°C° 0 mm 2 mps 754 mmHg 84%
05:00 +6°C° 0 mm 2 mps 754 mmHg 84%
06:00 +6°C° 0 mm 2 mps 754 mmHg 85%
07:00 +8°C° 0 mm 2 mps 753 mmHg 84%
08:00 +10°C° 0 mm 2 mps 753 mmHg 84%
09:00 +13°C° 0 mm 2 mps 753 mmHg 84%
10:00 +14°C° 0 mm 3 mps 753 mmHg 82%
11:00 +16°C° 0 mm 3 mps 753 mmHg 80%
12:00 +18°C° 0 mm 4 mps 753 mmHg 78%
13:00 +18°C° 0.2 mm 4 mps 753 mmHg 79%
14:00 +17°C° 0.2 mm 4 mps 753 mmHg 80%
15:00 +17°C° 0.2 mm 4 mps 753 mmHg 80%
16:00 +15°C° 0.1 mm 4 mps 753 mmHg 84%
17:00 +13°C° 0.1 mm 4 mps 754 mmHg 87%
18:00 +11°C° 0.1 mm 3 mps 754 mmHg 91%
19:00 +10°C° 0 mm 3 mps 755 mmHg 91%
20:00 +9°C° 0 mm 2 mps 755 mmHg 92%
21:00 +8°C° 0 mm 2 mps 756 mmHg 92%
22:00 +8°C° 0 mm 2 mps 756 mmHg 92%
23:00 +8°C° 0 mm 2 mps 757 mmHg 92%

29 September, Tuesday

Time Temperature Precipitation Wind Pressure Humidity
00:00 +7°C° 0 mm 2 mps 757 mmHg 91%
01:00 +7°C° 0 mm 2 mps 757 mmHg 91%
02:00 +8°C° 0 mm 1 mps 757 mmHg 92%
03:00 +8°C° 0 mm 1 mps 757 mmHg 92%
04:00 +8°C° 0 mm 1 mps 757 mmHg 93%
05:00 +8°C° 0 mm 1 mps 758 mmHg 93%
06:00 +8°C° 0 mm 1 mps 758 mmHg 93%
07:00 +9°C° 0 mm 1 mps 758 mmHg 89%
08:00 +11°C° 0 mm 1 mps 758 mmHg 85%
09:00 +12°C° 0 mm 1 mps 758 mmHg 82%
10:00 +13°C° 0 mm 1 mps 758 mmHg 75%
11:00 +14°C° 0 mm 1 mps 758 mmHg 68%
12:00 +15°C° 0 mm 1 mps 758 mmHg 62%
13:00 +15°C° 0.1 mm 2 mps 758 mmHg 64%
14:00 +15°C° 0.1 mm 2 mps 758 mmHg 66%
15:00 +15°C° 0.1 mm 2 mps 757 mmHg 68%
16:00 +14°C° 0.1 mm 2 mps 757 mmHg 71%
17:00 +13°C° 0.1 mm 2 mps 757 mmHg 75%
18:00 +12°C° 0.1 mm 2 mps 757 mmHg 78%
19:00 +10°C° 0 mm 2 mps 757 mmHg 80%
20:00 +9°C° 0 mm 2 mps 757 mmHg 82%
21:00 +8°C° 0 mm 2 mps 757 mmHg 83%
22:00 +8°C° 0 mm 2 mps 756 mmHg 86%
23:00 +8°C° 0 mm 2 mps 756 mmHg 88%

30 September, Wednesday

Time Temperature Precipitation Wind Pressure Humidity
00:00 +7°C° 0 mm 2 mps 756 mmHg 90%
01:00 +7°C° 0 mm 2 mps 755 mmHg 91%
02:00 +7°C° 0 mm 2 mps 755 mmHg 92%
03:00 +7°C° 0 mm 2 mps 754 mmHg 94%
04:00 +7°C° 0 mm 3 mps 754 mmHg 93%
05:00 +7°C° 0 mm 3 mps 753 mmHg 93%
06:00 +8°C° 0 mm 3 mps 753 mmHg 93%
07:00 +8°C° 0 mm 4 mps 752 mmHg 90%
08:00 +9°C° 0 mm 5 mps 751 mmHg 87%
09:00 +11°C° 0 mm 6 mps 750 mmHg 84%
10:00 +11°C° 0.2 mm 7 mps 749 mmHg 84%
11:00 +11°C° 0.2 mm 7 mps 748 mmHg 84%
12:00 +12°C° 0.2 mm 8 mps 747 mmHg 84%
13:00 +11°C° 0.9 mm 8 mps 747 mmHg 86%
14:00 +11°C° 0.9 mm 9 mps 746 mmHg 89%
15:00 +11°C° 0.9 mm 9 mps 745 mmHg 91%
16:00 +11°C° 0.9 mm 8 mps 744 mmHg 92%
17:00 +12°C° 0.9 mm 7 mps 744 mmHg 93%
18:00 +13°C° 0.9 mm 6 mps 744 mmHg 94%
19:00 +13°C° 0.6 mm 5 mps 743 mmHg 95%
20:00 +13°C° 0.6 mm 4 mps 743 mmHg 96%
21:00 +12°C° 0.6 mm 3 mps 742 mmHg 97%
22:00 +13°C° 1.2 mm 2 mps 741 mmHg 97%
23:00 +13°C° 1.2 mm 2 mps 740 mmHg 97%
Show more